This demonstration page uses our WeatherBlox Daily Observations layout. Learn more.

Left ArrowRight Arrow

Hourly Observations for June 11, 2019

Temp ( °F °C ) Dew Point ( °F °C ) Humidity (%) Winds ( mph kmh ) Pressure ( in mb ) Visibility ( mi km ) Precip ( " mm )
12:51 am 00:51 Clear 67 19.4 55 12.8 66 66 ESE 7 11 30.11 1020 10 16 0.00 0.00
1:51 am 01:51 Clear 66 18.9 55 12.8 68 68 SE 9 15 30.10 1019 10 16 0.00 0.00
2:51 am 02:51 Clear 65 18.3 55 12.8 70 70 SE 12 19 30.10 1019 10 16 0.00 0.00
3:51 am 03:51 Clear 65 18.3 55 12.8 70 70 SE 10 17 30.11 1020 10 16 0.00 0.00
4:51 am 04:51 Clear 64 17.8 55 12.8 73 73 SE 9 15 30.10 1019 10 16 0.00 0.00
5:51 am 05:51 Sunny 65 18.3 55 12.8 70 70 SSE 10 17 30.11 1020 10 16 0.00 0.00
6:51 am 06:51 Sunny 67 19.4 55 12.8 66 66 SE 13 20 30.11 1020 10 16 0.00 0.00
7:51 am 07:51 Sunny 70 21.1 55 12.8 59 59 SE 9 15 30.11 1020 10 16 0.00 0.00
8:51 am 08:51 Sunny 74 23.3 54 12.2 50 50 SSE 10 17 30.09 1019 10 16 0.00 0.00
9:51 am 09:51 Sunny 77 25 53 11.7 43 43 VRB 6 9 30.07 1018 10 16 0.00 0.00
10:51 am 10:51 Sunny 81 27.2 51 10.6 35 35 VRB 3 6 30.05 1018 10 16 0.00 0.00
11:51 am 11:51 Sunny 86 30 49 9.4 28 28 VRB 3 6 30.01 1016 10 16 0.00 0.00
12:51 pm 12:51 Sunny 92 33.3 48 8.9 22 22 VRB 6 9 29.95 1014 10 16 0.00 0.00
1:51 pm 13:51 Sunny 98 36.7 37 2.8 12 12 W 7 11 29.90 1013 10 16 0.00 0.00
2:51 pm 14:51 Sunny 100 37.8 25 -3.9 7 7 WNW 16 26 29.86 1011 10 16 0.00 0.00
3:51 pm 15:51 Mostly Sunny 101 38.3 32 0 9 9 W 18 30 29.83 1010 10 16 0.00 0.00
4:51 pm 16:51 Mostly Sunny 99 37.2 30 -1.1 9 9 W 15 24 29.81 1009 10 16 0.00 0.00
5:51 pm 17:51 Mostly Sunny 98 36.7 35 1.7 11 11 WNW 18 30 29.79 1009 10 16 0.00 0.00
6:51 pm 18:51 Sunny 96 35.6 32 0 10 10 NW 15 24 29.80 1009 10 16 0.00 0.00
7:51 pm 19:51 Clear 91 32.8 36 2.2 14 14 WNW 12 19 29.80 1009 10 16 0.00 0.00
8:51 pm 20:51 Clear 88 31.1 34 1.1 15 15 NW 12 19 29.82 1010 10 16 0.00 0.00
9:51 pm 21:51 Clear 85 29.4 33 0.6 15 15 WNW 10 17 29.85 1011 10 16 0.00 0.00
10:51 pm 22:51 Clear 83 28.3 33 0.6 17 17 W 9 15 29.85 1011 10 16 0.00 0.00
11:51 pm 23:51 Clear 79 26.1 32 0 18 18 WNW 9 15 29.85 1011 10 16 0.00 0.00

Powered by AerisWeather